[[{"header":{"parameterUnit":"m.s-1","parameterCategory":1,"la1":30.2992,"la2":30.254,"lo1":-89.0895,"lo2":-89.0443,"dy":0.0025,"dx":0.0025,"nx":19,"ny":19,"refTime":"2026-04-22T21:00:00:Z","depth":0,"parameterNumber":2,"parameterNumberName":"U-component_of_WINDS"},"data":[0,0,0,-1.5893,-1.5895,-1.5957,-1.5957,-1.6026,-1.6027,0,0,0,0,0,0,0,0,0,0,0,-1.5869,-1.5869,-1.5893,-1.5895,-1.5957,-1.5957,-1.6026,-1.6027,0,0,0,0,0,0,0,0,0,0,0,-1.5869,-1.5869,-1.5869,-1.5895,-1.5957,-1.5957,-1.6026,-1.5983,0,0,0,0,0,0,0,0,0,0,-1.5924,-1.5896,-1.5869,-1.5869,-1.5895,-1.5957,-1.5957,-1.5981,-1.5986,-1.5994,0,-1.6,0,-1.6014,-1.6031,-1.6031,0,0,0,-1.5899,-1.5892,-1.5914,-1.5869,-1.5896,-1.5957,-1.593,-1.5984,-1.5989,-1.6,-1.6001,-1.6004,-1.6016,-1.6031,-1.6032,-1.6065,-1.6065,0,0,-1.5896,-1.5877,-1.591,-1.5917,-1.5907,-1.5928,-1.5932,-1.5987,-1.5987,-1.6001,-1.6005,-1.6017,-1.6032,-1.6032,-1.6065,-1.6065,0,0,0,-1.5883,-1.5874,-1.5895,-1.5914,-1.5926,-1.593,-1.5934,-1.5984,-1.5993,-1.6006,-1.6018,-1.6032,-1.6033,-1.6065,-1.6065,-1.6045,0,0,0,-1.5881,-1.5867,-1.5894,-1.5883,-1.5925,-1.5956,-1.593,-1.5989,-1.5996,-1.6017,-1.6032,-1.6033,-1.6066,-1.6065,-1.6045,-1.6038,0,0,0,-1.5867,-1.5865,-1.5872,-1.5881,-1.5908,-1.5956,-1.5967,-1.5991,-1.6002,-1.6031,-1.6034,-1.6066,-1.6065,-1.6046,-1.6039,-1.6041,0,0,0,-1.5846,-1.5852,-1.5871,-1.5883,-1.5907,-1.5942,-1.5967,-1.5995,-1.6017,-1.6032,-1.6066,-1.6065,-1.6046,-1.604,-1.6042,-1.604,-1.6037,0,0,-1.5843,-1.5851,-1.586,-1.5878,-1.5906,-1.5934,-1.5959,-1.5997,-1.6017,-1.6048,-1.6049,-1.6045,-1.6039,-1.6042,-1.6029,-1.6027,0,0,0,-1.5852,-1.5858,-1.5869,-1.589,-1.5919,-1.5944,-1.5981,-1.5995,-1.6022,-1.6029,-1.6047,-1.6044,-1.6046,-1.6046,-1.6044,-1.6048,-1.6064,-1.6065,-1.6065,-1.5821,-1.5847,-1.5862,-1.5895,-1.5914,-1.5952,-1.597,-1.5996,-1.6016,-1.6019,-1.6029,-1.6018,-1.6018,-1.6016,-1.6019,-1.603,-1.603,-1.603,-1.603,-1.5819,-1.5831,-1.5858,-1.5882,-1.5909,-1.593,-1.5966,-1.598,-1.6003,-1.6013,-1.6017,-1.6026,-1.6013,-1.6017,-1.6028,-1.6029,-1.6029,-1.6029,-1.6029,-1.5802,-1.5812,-1.5829,-1.5862,-1.5884,-1.5917,-1.5938,-1.5962,-1.5984,-1.5987,-1.6,-1.6,-1.6004,-1.5992,-1.5992,-1.5992,-1.5992,-1.5992,-1.5992,-1.5776,-1.5797,-1.5812,-1.5844,-1.586,-1.5885,-1.5923,-1.594,-1.5964,-1.598,-1.598,-1.5999,-1.6007,-1.6009,-1.5991,-1.5991,-1.5991,-1.5991,-1.5991,-1.5765,-1.5771,-1.5794,-1.5811,-1.5851,-1.5871,-1.5901,-1.5933,-1.5951,-1.596,-1.5979,-1.5981,-1.5991,-1.5992,-1.5994,-1.5974,-1.5974,-1.5974,-1.5974,-1.575,-1.5757,-1.5786,-1.5811,-1.5838,-1.5868,-1.5893,-1.5923,-1.5954,-1.5967,-1.5973,-1.5977,-1.5978,-1.5987,-1.5989,-1.599,-1.597,-1.597,-1.597,-1.5744,-1.5755,-1.5772,-1.5804,-1.5837,-1.5864,-1.5889,-1.5916,-1.5954,-1.597,-1.5977,-1.5977,-1.5984,-1.5984,-1.6001,-1.6003,-1.6006,0,0]},{"header":{"parameterUnit":"m.s-1","parameterCategory":1,"la1":30.2992,"la2":30.254,"lo1":-89.0895,"lo2":-89.0443,"dy":0.0025,"dx":0.0025,"nx":19,"ny":19,"refTime":"2026-04-22T21:00:00:Z","depth":0,"parameterNumber":3,"parameterNumberName":"V-component_of_WINDS"},"data":[0,0,0,6.2465,6.2467,6.2533,6.2533,6.2613,6.2613,0,0,0,0,0,0,0,0,0,0,0,6.2445,6.2445,6.2465,6.2467,6.2533,6.2533,6.2613,6.2613,0,0,0,0,0,0,0,0,0,0,0,6.2444,6.2445,6.2446,6.2467,6.2533,6.2533,6.2612,6.2564,0,0,0,0,0,0,0,0,0,0,6.25,6.2481,6.2445,6.2446,6.2467,6.2533,6.2533,6.2561,6.2567,6.2581,0,6.2596,0,6.2606,6.2619,6.2619,0,0,0,6.2466,6.2476,6.2495,6.2446,6.2468,6.2533,6.2503,6.2564,6.257,6.2588,6.2597,6.26,6.2608,6.2619,6.2619,6.2711,6.2711,0,0,6.2463,6.2455,6.2491,6.2499,6.2492,6.2501,6.2505,6.2568,6.2576,6.2597,6.2602,6.2609,6.262,6.262,6.271,6.2711,0,0,0,6.2453,6.2453,6.247,6.2496,6.2509,6.2503,6.2508,6.2573,6.258,6.2603,6.261,6.262,6.2621,6.271,6.2711,6.2727,0,0,0,6.245,6.2447,6.2469,6.2465,6.2507,6.2542,6.2512,6.2576,6.2583,6.2609,6.262,6.2622,6.2709,6.271,6.2726,6.2735,0,0,0,6.244,6.2446,6.2455,6.2464,6.2493,6.2541,6.2552,6.2577,6.2587,6.2619,6.2622,6.2709,6.271,6.2724,6.2733,6.2759,0,0,0,6.2427,6.2466,6.2455,6.2502,6.2492,6.2552,6.2551,6.2595,6.2624,6.262,6.271,6.2711,6.2724,6.2732,6.2757,6.2779,6.2788,0,0,6.2472,6.2471,6.2499,6.2492,6.2552,6.2542,6.2604,6.2636,6.2644,6.2687,6.269,6.2726,6.2733,6.2758,6.2837,6.2843,0,0,0,6.2511,6.2531,6.2549,6.2578,6.2606,6.263,6.2654,6.2666,6.2704,6.2666,6.2742,6.2746,6.2761,6.2772,6.2778,6.2791,6.2715,6.2715,6.2715,6.2563,6.2575,6.2622,6.2642,6.267,6.2696,6.272,6.274,6.274,6.2758,6.2771,6.2818,6.283,6.2834,6.2849,6.2783,6.2783,6.2783,6.2783,6.263,6.2661,6.2665,6.2712,6.2724,6.2762,6.2788,6.2788,6.2825,6.2808,6.2822,6.2803,6.2842,6.2854,6.2785,6.2784,6.2784,6.2784,6.2784,6.2666,6.2683,6.27,6.2746,6.2778,6.2796,6.2833,6.284,6.2847,6.2861,6.2876,6.2876,6.2877,6.2868,6.2868,6.2868,6.2868,6.2868,6.2868,6.2697,6.2716,6.2747,6.2782,6.2803,6.2831,6.2859,6.2879,6.2902,6.2905,6.2905,6.2904,6.2844,6.2829,6.2871,6.287,6.287,6.287,6.287,6.2763,6.275,6.2799,6.282,6.2863,6.2895,6.2906,6.2946,6.2963,6.2981,6.2978,6.2932,6.293,6.2926,6.2913,6.2975,6.2975,6.2975,6.2975,6.2793,6.2795,6.2848,6.2882,6.2916,6.2931,6.2984,6.3006,6.3025,6.3037,6.3029,6.3013,6.3008,6.3009,6.3003,6.2992,6.3072,6.3072,6.3072,6.2835,6.284,6.2885,6.2908,6.2943,6.2971,6.3022,6.3058,6.3077,6.3076,6.3046,6.3042,6.3016,6.3007,6.3005,6.2995,6.2974,0,0]}]]